User: anonymous   Login
Location: Unspecified
(0.0000°N, 0.0000°E)
Time: 08:52:56
(UTC+00:00)
Language:

GALILEO-FM3 - Orbit

View from above orbital plane
View from above orbital plane
View from above satellite
View from above satellite

Ground track
Ground track

The orbit data is extracted from the following two-line orbital elements,

1 38857U 12055A   17176.46830075 +.00000059 +00000-0 +00000-0 0  9993
2 38857 054.9091 191.8016 0005531 249.0079 110.9684 01.70473730029262
Epoch (UTC): 25 June 2017 11:14:21
Eccentricity: 0.0005531
inclination: 54.9091°
perigee height: 23205 km
apogee height: 23238 km
right ascension of ascending node: 191.8016°
argument of perigee: 249.0079°
revolutions per day: 1.70473730
mean anomaly at epoch: 110.9684°
orbit number at epoch: 2926

The dashed part of the orbit path shows where the satellite is in the earth's shadow,  

DLR